FW1042 Weather Reports


Display with metric or nautical units.
time (UTC)temp
F
wind
direction
speed
MPH
gust
MPH
rain 1hr
in
rain 24hr
in
rain mn
in
humidity
%
barometer
mb
20260504034627 71 171 4.0 9.0 0.00 0.00 0.00 49 1015.7
20260504034126 71 212 3.0 7.0 0.00 0.00 0.00 48 1015.6
20260504033626 71 178 3.0 7.0 0.00 0.00 0.00 48 1015.6
20260504033126 71 216 4.0 10.0 0.00 0.00 0.00 48 1015.6
20260504032626 71 172 4.0 10.0 0.00 0.00 0.00 48 1015.6
20260504032126 71 213 3.0 10.0 0.00 0.00 0.00 48 1015.6
20260504031624 72 146 3.0 9.0 0.00 0.00 0.00 48 1015.6
20260504031124 72 204 3.0 9.0 0.00 0.00 0.00 47 1015.6
20260504030919 72 186 3.0 9.0 0.00 0.00 0.00 47 1015.5
20260504030125 72 140 4.0 10.0 0.00 0.00 0.00 47 1015.5
20260504025624 72 144 4.0 10.0 0.00 0.00 0.00 46 1015.4
20260504025125 72 179 3.0 8.0 0.00 0.00 0.00 46 1015.5
20260504024622 73 186 3.0 8.0 0.00 0.00 0.00 46 1015.4
20260504024123 73 171 3.0 8.0 0.00 0.00 0.00 45 1015.3
20260504023622 73 206 3.0 9.0 0.00 0.00 0.00 45 1015.4
20260504023121 73 180 4.0 9.0 0.00 0.00 0.00 44 1015.5
20260504022623 73 184 4.0 9.0 0.00 0.00 0.00 44 1015.5
20260504022122 73 131 4.0 12.0 0.00 0.00 0.00 44 1015.4
20260504021621 73 186 4.0 12.0 0.00 0.00 0.00 43 1015.4
20260504021119 74 192 4.0 11.0 0.00 0.00 0.00 43 1015.4
20260504020618 74 182 4.0 10.0 0.00 0.00 0.00 42 1015.4
20260504020118 74 172 4.0 9.0 0.00 0.00 0.00 42 1015.4
20260504015614 74 175 4.0 10.0 0.00 0.00 0.00 41 1015.2
20260504015112 74 184 4.0 10.0 0.00 0.00 0.00 41 1015.2
20260504014614 74 197 4.0 9.0 0.00 0.00 0.00 41 1015.2
20260504014110 75 169 4.0 8.0 0.00 0.00 0.00 40 1015.2
20260504013909 75 185 4.0 9.0 0.00 0.00 0.00 39 1015.1
20260504013111 75 150 4.0 11.0 0.00 0.00 0.00 39 1015.1
20260504012610 75 122 4.0 11.0 0.00 0.00 0.00 39 1015.0
20260504012109 75 206 3.0 8.0 0.00 0.00 0.00 39 1015.1
20260504011608 76 171 4.0 11.0 0.00 0.00 0.00 39 1015.1
20260504011108 76 200 4.0 11.0 0.00 0.00 0.00 39 1015.0
20260504010924 76 180 4.0 9.0 0.00 0.00 0.00 39 1015.0
20260504010501 76 138 4.0 11.0 0.00 0.00 0.00 38 1014.9
20260504010457 76 161 4.0 11.0 0.00 0.00 0.00 38 1014.8
20260504005105 76 163 5.0 10.0 0.00 0.00 0.00 38 1014.9
20260504004604 77 215 6.0 16.0 0.00 0.00 0.00 38 1015.0
20260504004104 77 175 6.0 16.0 0.00 0.00 0.00 38 1015.0
20260504003606 77 182 5.0 12.0 0.00 0.00 0.00 37 1015.0
20260504003355 78 126 5.0 12.0 0.00 0.00 0.00 37 1015.0
20260504002604 78 190 4.0 13.0 0.00 0.00 0.00 37 1014.9
20260504002104 78 147 5.0 13.0 0.00 0.00 0.00 37 1015.0
20260504001604 79 184 5.0 12.0 0.00 0.00 0.00 36 1015.0
20260504001105 79 175 5.0 12.0 0.00 0.00 0.00 35 1015.0
20260504000907 80 244 4.0 11.0 0.00 0.00 0.00 33 1014.9
20260504000105 80 164 4.0 10.0 0.00 0.00 0.00 32 1015.0
20260503235603 81 200 4.0 10.0 0.00 0.00 0.00 32 1015.1
20260503235103 81 248 5.0 12.0 0.00 0.00 0.00 33 1015.2
20260503234602 81 178 6.0 15.0 0.00 0.00 0.00 33 1015.1
20260503234103 82 197 6.0 15.0 0.00 0.00 0.00 33 1015.2
20260503233604 82 183 5.0 12.0 0.00 0.00 0.00 33 1015.3
20260503233104 82 195 5.0 12.0 0.00 0.00 0.00 32 1015.3
20260503232604 82 204 5.0 12.0 0.00 0.00 0.00 32 1015.2
20260503232348 82 126 4.0 11.0 0.00 0.00 0.00 33 1015.4
20260503231558 82 183 5.0 11.0 0.00 0.00 0.00 33 1015.3
20260503231352 82 154 5.0 11.0 0.00 0.00 0.00 33 1015.3
20260503230559 83 214 5.0 11.0 0.00 0.00 0.00 31 1015.4
20260503230059 83 208 4.0 10.0 0.00 0.00 0.00 31 1015.4
20260503225558 83 122 4.0 11.0 0.00 0.00 0.00 31 1015.4
20260503225058 83 185 5.0 12.0 0.00 0.00 0.00 31 1015.4
20260503224558 83 207 5.0 12.0 0.00 0.00 0.00 31 1015.5
20260503224057 83 219 5.0 14.0 0.00 0.00 0.00 31 1015.5
20260503223557 84 215 4.0 14.0 0.00 0.00 0.00 31 1015.5
20260503223058 83 155 4.0 10.0 0.00 0.00 0.00 31 1015.5
20260503222557 84 162 4.0 10.0 0.00 0.00 0.00 30 1015.6
20260503222057 83 107 6.0 15.0 0.00 0.00 0.00 31 1015.6
20260503221556 83 159 7.0 15.0 0.00 0.00 0.00 30 1015.7
20260503221057 83 189 6.0 18.0 0.00 0.00 0.00 30 1015.7
20260503220702 84 145 5.0 15.0 0.00 0.00 0.00 31 1015.7
20260503220640 84 173 4.0 18.0 0.00 0.00 0.00 31 1015.7
20260503215556 83 164 5.0 15.0 0.00 0.00 0.00 32 1015.8
20260503215056 83 196 5.0 14.0 0.00 0.00 0.00 30 1015.9
20260503214629 83 184 6.0 14.0 0.00 0.00 0.00 29 1016.0
20260503213556 84 280 5.0 16.0 0.00 0.00 0.00 31 1016.0
20260503213057 84 192 5.0 16.0 0.00 0.00 0.00 31 1016.4
20260503212556 84 188 6.0 13.0 0.00 0.00 0.00 33 1016.3
20260503212050 83 216 6.0 17.0 0.00 0.00 0.00 32 1016.3
20260503211622 84 223 5.0 17.0 0.00 0.00 0.00 32 1016.5
20260503210840 84 188 5.0 11.0 0.00 0.00 0.00 32 1016.8
20260503210050 84 138 6.0 12.0 0.00 0.00 0.00 31 1016.8
20260503205550 84 200 6.0 13.0 0.00 0.00 0.00 31 1017.0
20260503205050 84 159 5.0 13.0 0.00 0.00 0.00 30 1017.1
20260503204550 84 171 6.0 13.0 0.00 0.00 0.00 32 1017.0
20260503204049 84 172 5.0 14.0 0.00 0.00 0.00 32 1017.2
20260503203551 84 155 4.0 14.0 0.00 0.00 0.00 31 1017.3
20260503203335 84 255 4.0 10.0 0.00 0.00 0.00 33 1017.3
20260503202548 83 189 4.0 12.0 0.00 0.00 0.00 36 1017.3
20260503202151 84 209 3.0 9.0 0.00 0.00 0.00 34 1017.5
20260503202120 84 107 4.0 12.0 0.00 0.00 0.00 33 1017.5
20260503201048 83 269 3.0 9.0 0.00 0.00 0.00 35 1017.6
20260503200548 84 246 3.0 7.0 0.00 0.00 0.00 34 1017.6
20260503200052 83 176 3.0 9.0 0.00 0.00 0.00 33 1017.7
20260503195548 83 157 4.0 12.0 0.00 0.00 0.00 32 1017.8
20260503195048 83 18 5.0 12.0 0.00 0.00 0.00 34 1018.0
20260503194548 83 142 4.0 13.0 0.00 0.00 0.00 33 1018.0
20260503194048 83 186 4.0 13.0 0.00 0.00 0.00 33 1018.1
20260503193547 83 160 4.0 9.0 0.00 0.00 0.00 34 1018.1
20260503193048 83 211 4.0 11.0 0.00 0.00 0.00 36 1018.2
20260503192549 83 218 4.0 11.0 0.00 0.00 0.00 35 1018.3
20260503192048 83 191 4.0 10.0 0.00 0.00 0.00 34 1018.5
20260503191548 83 153 4.0 10.0 0.00 0.00 0.00 36 1018.4
20260503191048 83 252 3.0 9.0 0.00 0.00 0.00 36 1018.7
20260503190548 83 175 4.0 9.0 0.00 0.00 0.00 36 1018.6
20260503190048 83 277 4.0 13.0 0.00 0.00 0.00 37 1018.6
20260503185548 82 152 4.0 13.0 0.00 0.00 0.00 36 1018.7
20260503185048 82 169 4.0 9.0 0.00 0.00 0.00 37 1018.9
20260503184546 82 184 4.0 10.0 0.00 0.00 0.00 38 1018.8
20260503184046 82 182 4.0 11.0 0.00 0.00 0.00 36 1018.9
20260503183842 81 182 5.0 14.0 0.00 0.00 0.00 37 1019.0
20260503183045 81 175 5.0 14.0 0.00 0.00 0.00 35 1019.2
20260503182842 81 154 4.0 11.0 0.00 0.00 0.00 38 1019.1
20260503182050 81 243 3.0 8.0 0.00 0.00 0.00 41 1019.2
20260503181546 81 157 3.0 7.0 0.00 0.00 0.00 42 1019.3
20260503181046 81 111 3.0 8.0 0.00 0.00 0.00 41 1019.4
20260503180546 81 225 3.0 8.0 0.00 0.00 0.00 40 1019.6
20260503180146 81 261 3.0 10.0 0.00 0.00 0.00 41 1019.9
20260503180123 81 344 2.0 8.0 0.00 0.00 0.00 41 1019.7
20260503175045 81 15 3.0 10.0 0.00 0.00 0.00 43 1019.9
20260503174546 81 125 3.0 8.0 0.00 0.00 0.00 43 1020.0
20260503174045 81 196 3.0 8.0 0.00 0.00 0.00 43 1020.1
20260503173546 81 342 3.0 11.0 0.00 0.00 0.00 43 1020.1
20260503173043 81 300 3.0 11.0 0.00 0.00 0.00 42 1020.1
20260503172836 81 244 4.0 10.0 0.00 0.00 0.00 46 1020.2
20260503172043 80 160 4.0 10.0 0.00 0.00 0.00 45 1020.3
20260503171835 80 213 5.0 12.0 0.00 0.00 0.00 45 1020.4
20260503171338 80 155 4.0 12.0 0.00 0.00 0.00 44 1020.4
20260503170544 80 34 4.0 8.0 0.00 0.00 0.00 44 1020.5
20260503170158 80 188 4.0 10.0 0.00 0.00 0.00 45 1020.7
20260503170134 80 150 5.0 10.0 0.00 0.00 0.00 45 1020.6
20260503150533 73 157 4.0 9.0 0.00 0.00 0.00 55 1020.9
20260503131005 61 211 3.0 6.0 0.00 0.00 0.00 73 1020.7
20260503130802 60 184 2.0 6.0 0.00 0.00 0.00 74 1020.9
20260503110457 57 190 1.0 4.0 0.00 0.00 0.00 76 1019.7
20260503081431 59 196 0.0 0.0 0.00 0.00 0.00 71 1019.5
20260503080932 59 196 0.0 0.0 0.00 0.00 0.00 70 1019.5
20260503080432 59 196 0.0 0.0 0.00 0.00 0.00 70 1019.6
20260503072427 60 190 1.0 4.0 0.00 0.00 0.00 68 1019.7
20260503071923 60 156 1.0 5.0 0.00 0.00 0.00 68 1019.8
20260503071723 60 188 2.0 5.0 0.00 0.00 0.00 69 1019.8
20260503070923 60 167 2.0 5.0 0.00 0.00 0.00 69 1019.9
20260503070423 60 128 1.0 5.0 0.00 0.00 0.00 69 1019.9
20260503054917 63 176 1.0 3.0 0.00 0.00 0.00 59 1019.5
20260503054417 63 199 1.0 3.0 0.00 0.00 0.00 59 1019.5
20260503053920 63 206 1.0 3.0 0.00 0.00 0.00 59 1019.5
20260503053415 63 186 1.0 4.0 0.00 0.00 0.00 59 1019.5
20260503053213 63 185 1.0 4.0 0.00 0.00 0.00 58 1019.6
20260503052413 63 153 0.0 3.0 0.00 0.00 0.00 58 1019.6
20260503051912 64 163 1.0 2.0 0.00 0.00 0.00 58 1019.4
20260503051412 64 170 1.0 3.0 0.00 0.00 0.00 58 1019.5
20260503051006 64 157 1.0 4.0 0.00 0.00 0.00 58 1019.4
20260503050943 64 140 1.0 4.0 0.00 0.00 0.00 58 1019.5
20260503045907 64 171 1.0 4.0 0.00 0.00 0.00 58 1019.5
20260503045658 64 167 1.0 4.0 0.00 0.00 0.00 58 1019.4
20260503044904 64 153 1.0 4.0 0.00 0.00 0.00 58 1019.3
20260503044404 64 152 1.0 4.0 0.00 0.00 0.00 59 1019.4
20260503044159 64 165 1.0 4.0 0.00 0.00 0.00 59 1019.4
20260503043655 64 170 1.0 5.0 0.00 0.00 0.00 59 1019.5
20260503043152 64 158 1.0 5.0 0.00 0.00 0.00 60 1019.4
20260503042400 64 178 1.0 4.0 0.00 0.00 0.00 60 1019.4
20260503041902 63 171 1.0 3.0 0.00 0.00 0.00 61 1019.4
20260503041402 63 161 0.0 2.0 0.00 0.00 0.00 61 1019.4
20260503040901 63 157 0.0 2.0 0.00 0.00 0.00 61 1019.4
20260503040400 63 173 0.0 2.0 0.00 0.00 0.00 61 1019.3
20260503035900 63 173 0.0 2.0 0.00 0.00 0.00 61 1019.4
20260503035401 63 169 0.0 1.0 0.00 0.00 0.00 61 1019.4
20260503034900 63 169 0.0 1.0 0.00 0.00 0.00 60 1019.4